{"data":{"norad_id":59208,"epoch":"2026-09-20T15:54:43.880832Z","epoch_age_seconds":144740,"freshness":"FRESH","line1":"1 59208U 24046H   26263.66300788  .00004595  00000+0  14705-3 0  9999","line2":"2 59208  53.1603 325.2579 0001258  80.0900 280.0245 15.34399343142967","mean_motion":15.34399343,"eccentricity":0.0001258,"inclination_deg":53.1603,"raan_deg":325.2579,"arg_perigee_deg":80.09,"mean_anomaly_deg":280.0245,"bstar":0.00014705,"rev_number":14296,"period_min":93.847798265122,"perigee_km":461.84461500239,"apogee_km":463.56577089813,"semimajor_km":6840.8421929503,"source":"CELESTRAK","updated_at":"2026-09-21T09:00:34.069505Z"}}